GENESIS 1

Last updated on Fri Apr 25 2025 00:02:11 GMT+0000 (Coordinated Universal Time)

1 29252U 06029A 25114.21976928 .00144143 00000+0 76339-3 0 9991 2 29252 64.5009 172.3927 0031474 297.2363 62.5583 15.79164627 38961
UTC large
Height (km)
Speed (km/s)
/
Latitude / Longitude
Inclination (degrees)
Orbital Period (minutes)
Azimuth
Elevation
Range (km)
Doppler Factor

Next 0 passes for location: London (51.5072 / 0.1276)

Sorry there are no passes over London.